Flag for Germany Weather past 2 weeks in Langen, Hesse, Germany

Now
99 °F

Passing clouds.


Feels Like: 98 °F
Forecast: 70 / 95 °F
Wind: 8 mph from South

Location: Frankfurt-M-Flughafen Airport

Current Time: Jul 4, 2015 at 4:01:31 PM

Latest Report: Jul 4, 2015 at 3:20 PM


Visibility: N/A

Pressure: 30.07 "Hg

Humidity: 25%

Dew point: 57 °F

Location of LangenLocation

Historic Weather in Langen — Graph

°F

Langen temperature yesterday

Maximum temperature yesterday: 97 °F (at 5:50 PM)
Minimum temperature yesterday: 72 °F (at 3:50 AM)
Average temperature yesterday: 84 °F

Past Weeks' High & Low Weather Summary

 TemperatureHumidityPressure
High97 °F (Jul 3, 5:50 PM)100% (Jun 21, 11:50 PM)30.21 "Hg (Jun 21, 11:50 PM)
Low48 °F (Jun 23, 4:50 AM)20% (Jun 30, 4:50 PM)29.68 "Hg (Jun 22, 10:50 PM)
Average67 °F65%30.09 "Hg
* Reported Jun 19 2:20 PM — Jul 4 2:50 PM, Langen, Weather by CustomWeather, © 2015

Note: Actual official high and low records may vary slightly from our data, if they occured in-between our weather recording intervals... More about our weather records

Advertising

Langen weather history for previous 24 hours

 ConditionsComfort  
Time TempWeatherWind HumidityBarometerVisibility
2:50 PM
Sat, Jul 4
97 °FPassing clouds.9 mph30%30.07 "HgN/A
2:20 PM97 °FSunny.7 mph32%30.07 "Hg10 mi
1:50 PM97 °FPassing clouds.8 mph32%30.09 "HgN/A
1:20 PM95 °FPassing clouds.9 mph30%30.09 "HgN/A
12:50 PM93 °FPassing clouds.10 mph34%30.09 "HgN/A
12:20 PM93 °FPassing clouds.12 mph34%30.09 "HgN/A
11:50 AM90 °FPassing clouds.7 mph46%30.09 "HgN/A
11:20 AM88 °FPassing clouds.8 mph46%30.09 "HgN/A
10:50 AM88 °FPassing clouds.6 mph46%30.09 "HgN/A
10:20 AM86 °FPassing clouds.6 mph52%30.12 "HgN/A
9:50 AM86 °FPassing clouds.5 mph52%30.12 "HgN/A
9:20 AM84 °FSunny.1 mph55%30.12 "Hg10 mi
8:50 AM84 °FPassing clouds.3 mph55%30.12 "HgN/A
8:20 AM81 °FPassing clouds.3 mph62%30.12 "HgN/A
7:50 AM81 °FSunny.7 mph62%30.12 "Hg10 mi
7:20 AM77 °FSunny.7 mph69%30.12 "Hg10 mi
6:50 AM75 °FPassing clouds.6 mph74%30.12 "HgN/A
6:20 AM75 °FPassing clouds.7 mph74%30.12 "HgN/A
5:50 AM75 °FClear.7 mph74%30.12 "Hg10 mi
5:20 AM75 °FClear.7 mph74%30.12 "Hg10 mi
4:50 AM75 °FClear.6 mph74%30.12 "Hg10 mi
4:20 AM77 °FClear.6 mph69%30.09 "Hg10 mi
3:50 AM75 °FClear.6 mph74%30.12 "Hg10 mi
3:20 AM77 °FClear.6 mph69%30.12 "Hg10 mi
2:50 AM75 °FPassing clouds.3 mph74%30.12 "HgN/A
2:20 AM75 °FClear.5 mph69%30.12 "Hg10 mi
1:50 AM79 °FClear.6 mph61%30.12 "Hg10 mi
1:20 AM81 °FClear.2 mph58%30.12 "Hg10 mi
12:50 AM77 °FClear.6 mph69%30.12 "Hg10 mi
12:20 AM77 °FClear.6 mph65%30.15 "Hg10 mi
11:50 PM
Fri, Jul 3
77 °FClear.5 mph69%30.15 "Hg10 mi
11:20 PM79 °FClear.5 mph65%30.15 "Hg10 mi
10:50 PM79 °FClear.2 mph65%30.15 "Hg10 mi
10:20 PM81 °FPassing clouds.5 mph62%30.15 "HgN/A
9:50 PM84 °FPassing clouds.6 mph51%30.15 "HgN/A
9:20 PM86 °FPassing clouds.6 mph46%30.12 "HgN/A
8:50 PM88 °FSunny.6 mph43%30.12 "Hg10 mi
8:20 PM90 °FPassing clouds.3 mph46%30.12 "HgN/A
7:50 PM95 °FPassing clouds.5 mph32%30.12 "HgN/A
7:20 PM95 °FPassing clouds.5 mph30%30.12 "HgN/A
6:50 PM95 °FPassing clouds.6 mph26%30.15 "HgN/A
6:20 PM95 °FPassing clouds.6 mph26%30.12 "HgN/A
5:50 PM97 °FSunny.3 mph27%30.15 "Hg10 mi
5:20 PM95 °FSunny.3 mph28%30.15 "Hg10 mi
4:50 PM95 °FPassing clouds.6 mph28%30.15 "HgN/A
4:20 PM95 °FPassing clouds.8 mph26%30.18 "HgN/A
Weather by CustomWeather, © 2015

See weather overviewHow to use our weather pages